Date String (YYYY-MM-DD hh:mm:ss) UTC,Instrument flags,Ambient pressure (hPa),Sample flow (lpm),Bypass flow (lpm),Sample temperature (°C),Ambient temperature (°C),ASC tube jacket temperature (°C),LED temperature (°C),Box temperature (°C),Sample RH (%),Span deviation,Mass concentration (μg/m³),Mass concentration (μg/m³),Mass concentration (μg/m³)
DateTimeUTC,F1_M11,P_M11,Q1_M11,Q2_M11,T1_M11,T2_M11,T3_M11,T4_M11,T5_M11,U1_M11,ZSPAN_M11,X0_M11,X2_M11,X1_M11
2021-10-06 20:00:00,,0824.8,5.01,0.00,29.6,28.8,00.0,38.5,31.5,17.7,0001.1,0024.12,0007.45,0005.77
2021-10-06 20:01:00,,0824.8,4.99,0.00,29.6,28.9,00.0,38.5,31.6,17.7,0001.0,0023.54,0007.46,0005.78
2021-10-06 20:02:00,,0824.8,5.00,0.00,29.7,29.0,00.0,38.5,31.7,17.7,0000.8,0023.37,0007.43,0005.77
2021-10-06 20:03:00,,0824.7,5.01,0.00,29.7,27.8,00.0,38.5,31.3,17.6,0000.6,0023.09,0007.41,0005.77
2021-10-06 20:04:00,,0824.7,4.99,0.00,29.5,26.0,00.0,38.5,30.9,17.7,0000.9,0022.14,0007.43,0005.80
2021-10-06 20:05:00,,0824.7,5.01,0.00,29.4,25.9,00.0,38.5,30.8,17.9,0001.0,0022.58,0007.50,0005.82
2021-10-06 20:06:00,,0824.7,5.00,0.00,29.4,26.3,00.0,38.5,30.9,18.0,0001.0,0022.88,0007.53,0005.83
2021-10-06 20:07:00,,0824.7,5.01,0.00,29.3,26.8,00.0,38.4,31.0,18.1,0000.9,0022.92,0007.55,0005.83
2021-10-06 20:08:00,,0824.7,4.99,0.00,29.3,27.2,00.0,38.4,31.0,18.1,0000.9,0022.24,0007.62,0005.83
2021-10-06 20:09:00,,0824.7,5.00,0.00,29.4,27.6,00.0,38.4,31.2,18.0,0001.1,0021.24,0007.62,0005.84
2021-10-06 20:10:00,,0824.6,5.01,0.00,29.4,27.9,00.0,38.4,31.3,17.9,0001.9,0020.72,0007.60,0005.86
2021-10-06 20:11:00,,0824.6,5.00,0.00,29.5,28.2,00.0,38.4,31.3,17.9,0002.6,0020.27,0007.47,0005.86
2021-10-06 20:12:00,,0824.6,5.00,0.00,29.5,28.5,00.0,38.4,31.4,17.9,0002.6,0020.25,0007.46,0005.85
2021-10-06 20:13:00,,0824.6,5.00,0.00,29.6,28.7,00.0,38.5,31.5,18.0,0002.4,0019.21,0007.44,0005.84
2021-10-06 20:14:00,,0824.6,5.01,0.00,29.6,27.9,00.0,38.5,31.3,17.9,0002.6,0018.93,0007.40,0005.82
2021-10-06 20:15:00,,0824.6,5.01,0.00,29.4,25.9,00.0,38.5,30.6,17.9,0002.7,0019.18,0007.37,0005.80
2021-10-06 20:16:00,,0824.6,5.01,0.00,29.3,25.6,00.0,38.4,30.5,18.1,0003.3,0019.25,0007.25,0005.79
2021-10-06 20:17:00,,0824.6,5.00,0.00,29.2,26.0,00.0,38.4,30.7,18.1,0003.4,0020.66,0007.25,0005.78
2021-10-06 20:18:00,,0824.6,4.98,0.00,29.2,26.4,00.0,38.4,30.8,18.1,0003.4,0021.30,0007.21,0005.78
2021-10-06 20:19:00,,0824.7,5.01,0.00,29.2,26.9,00.0,38.3,30.9,18.1,0003.4,0020.64,0007.12,0005.79
2021-10-06 20:20:00,,0824.9,4.99,0.00,29.2,27.3,00.0,38.3,31.0,18.2,0003.6,0020.52,0007.10,0005.81
2021-10-06 20:21:00,,0824.7,5.00,0.00,29.2,27.7,00.0,38.3,31.1,18.1,0003.5,0021.76,0007.08,0005.81
2021-10-06 20:22:00,,0824.5,5.00,0.00,29.3,28.0,00.0,38.3,31.2,18.1,0003.0,0023.38,0007.17,0005.82
2021-10-06 20:23:00,,0824.5,5.00,0.00,29.4,28.2,00.0,38.3,31.2,18.1,0003.2,0024.68,0007.26,0005.85
2021-10-06 20:24:00,,0824.4,5.00,0.00,29.4,28.4,00.0,38.3,31.3,17.9,0003.5,0026.48,0007.33,0005.90
2021-10-06 20:25:00,,0824.5,4.99,0.00,29.5,28.6,00.0,38.4,31.4,17.8,0003.6,0027.11,0007.44,0005.96
2021-10-06 20:26:00,,0824.6,5.00,0.00,29.5,28.7,00.0,38.4,31.5,17.8,0003.4,0027.34,0007.52,0005.99
2021-10-06 20:27:00,,0824.6,5.00,0.00,29.6,28.8,00.0,38.4,31.5,18.0,0002.8,0027.97,0007.61,0006.03
2021-10-06 20:28:00,,0824.6,5.00,0.00,29.6,29.0,00.0,38.5,31.6,17.7,0002.1,0027.52,0007.61,0006.04
2021-10-06 20:29:00,,0824.4,5.01,0.00,29.7,29.1,00.0,38.5,31.6,17.6,0001.9,0025.89,0007.64,0006.06
2021-10-06 20:30:00,,0824.4,4.99,0.00,29.7,29.0,00.0,38.5,31.6,17.8,0002.1,0026.34,0007.67,0006.07
2021-10-06 20:31:00,,0824.5,5.00,0.00,29.7,27.3,00.0,38.5,31.2,17.8,0002.3,0026.69,0007.75,0006.08
2021-10-06 20:32:00,,0824.5,5.01,0.00,29.5,25.8,00.0,38.5,30.8,17.9,0002.4,0026.59,0007.80,0006.08
2021-10-06 20:33:00,,0824.5,5.00,0.00,29.4,26.0,00.0,38.5,30.8,18.1,0002.8,0026.18,0007.82,0006.08
2021-10-06 20:34:00,,0824.4,5.00,0.00,29.3,26.4,00.0,38.5,30.9,18.1,0002.8,0025.94,0007.84,0006.08
2021-10-06 20:35:00,,0824.4,5.00,0.00,29.3,26.9,00.0,38.4,31.0,18.4,0002.8,0025.85,0007.78,0006.05
2021-10-06 20:36:00,,0824.4,5.00,0.00,29.3,27.3,00.0,38.4,31.1,18.3,0002.8,0026.16,0007.71,0006.02
2021-10-06 20:37:00,,0824.4,5.00,0.00,29.4,27.7,00.0,38.4,31.2,18.2,0003.0,0025.90,0007.72,0005.99
2021-10-06 20:38:00,,0824.5,5.00,0.00,29.4,28.0,00.0,38.4,31.3,18.0,0003.0,0024.93,0007.65,0005.96
2021-10-06 20:39:00,,0824.5,4.99,0.00,29.5,28.2,00.0,38.4,31.3,18.1,0003.1,0024.02,0007.62,0005.95
2021-10-06 20:40:00,,0824.5,5.00,0.00,29.5,28.5,00.0,38.4,31.4,17.8,0003.1,0024.70,0007.55,0005.93
2021-10-06 20:41:00,,0824.5,4.99,0.00,29.5,28.6,00.0,38.5,31.4,17.7,0002.7,0024.80,0007.57,0005.92
2021-10-06 20:42:00,,0824.5,4.99,0.00,29.6,28.8,00.0,38.5,31.5,17.6,0002.1,0024.76,0007.54,0005.90
2021-10-06 20:43:00,,0824.4,5.00,0.00,29.7,28.9,00.0,38.5,31.6,17.6,0001.7,0023.53,0007.49,0005.90
2021-10-06 20:44:00,,0824.5,5.01,0.00,29.7,29.0,00.0,38.6,31.7,17.6,0001.1,0022.88,0007.45,0005.90
2021-10-06 20:45:00,,0824.4,4.99,0.00,29.7,28.0,00.0,38.6,31.4,17.9,0000.7,0022.07,0007.43,0005.87
2021-10-06 20:46:00,,0824.4,5.01,0.00,29.6,26.1,00.0,38.6,30.9,18.2,0000.7,0021.21,0007.39,0005.84
2021-10-06 20:47:00,,0824.4,5.00,0.00,29.4,25.8,00.0,38.5,30.8,18.1,0000.4,0021.28,0007.43,0005.82
2021-10-06 20:48:00,,0824.3,5.01,0.00,29.4,26.2,00.0,38.5,30.9,18.5,0000.2,0022.60,0007.38,0005.80
2021-10-06 20:49:00,,0824.3,4.98,0.00,29.3,26.7,00.0,38.5,30.9,18.4,0000.0,0023.47,0007.40,0005.77
2021-10-06 20:50:00,,0824.3,5.01,0.00,29.3,27.1,00.0,38.4,31.0,18.5,0000.4,0024.49,0007.41,0005.75
2021-10-06 20:51:00,,0824.3,5.00,0.00,29.3,27.5,00.0,38.4,31.1,18.5,0000.4,0024.51,0007.42,0005.73
2021-10-06 20:52:00,,0824.3,5.01,0.00,29.4,27.8,00.0,38.4,31.2,18.2,0000.6,0023.84,0007.34,0005.70
2021-10-06 20:53:00,,0824.3,4.99,0.00,29.4,28.1,00.0,38.4,31.3,18.4,0000.7,0023.52,0007.30,0005.66
2021-10-06 20:54:00,,0824.3,5.00,0.00,29.5,28.3,00.0,38.4,31.4,18.3,0000.6,0023.85,0007.29,0005.64
2021-10-06 20:55:00,,0824.3,4.99,0.00,29.5,28.5,00.0,38.5,31.4,18.3,0000.7,0024.16,0007.31,0005.62
2021-10-06 20:56:00,,0824.3,5.00,0.00,29.6,28.7,00.0,38.5,31.5,17.9,0001.4,0023.94,0007.26,0005.61
2021-10-06 20:57:00,,0824.3,5.01,0.00,29.6,28.8,00.0,38.5,31.5,17.8,0000.6,0023.68,0007.28,0005.65
2021-10-06 20:58:00,,0824.3,5.00,0.00,29.7,28.9,00.0,38.5,31.6,17.8,0000.6,0023.62,0007.29,0005.66
2021-10-06 20:59:00,,0824.3,4.99,0.00,29.7,29.0,00.0,38.6,31.7,17.8,0000.3,0022.62,0007.34,0005.71
